Flag for France Weather past 2 weeks in Le Mans, France

Now
55 °F

Mostly cloudy.


Feels Like: 55 °F
Forecast: 45 / 65 °F
Wind: No wind

Location: Le Mans Airport

Current Time: Oct 25, 2014 at 7:52:31 AM

Latest Report: Oct 25, 2014 at 7:30 AM


Visibility: N/A

Pressure: 30.07 "Hg

Humidity: 82%

Dew point: 50 °F

Location of Le MansLocation

Historic Weather in Le Mans — Graph

°F

Le Mans temperature yesterday

Maximum temperature yesterday: 61 °F (at 3:00 PM)
Minimum temperature yesterday: 50 °F (at 6:30 AM)
Average temperature yesterday: 55 °F

Past Weeks' High & Low Weather Summary

 TemperatureHumidityPressure
High77 °F (Oct 18, 3:00 PM)100% (Oct 10, 7:00 AM)30.42 "Hg (Oct 10, 7:00 AM)
Low37 °F (Oct 14, 8:30 AM)43% (Oct 14, 4:30 PM)29.50 "Hg (Oct 12, 7:30 PM)
Average58 °F82%29.96 "Hg
* Reported Oct 10 6:00 AM — Oct 25 6:30 AM, Le Mans, Weather by CustomWeather, © 2014

Note: Actual official high and low records may vary slightly from our data, if they occured in-between our weather recording intervals... More about our weather records

Advertising

Le Mans weather history for previous 24 hours

 ConditionsComfort  
Time TempWeatherWind HumidityBarometerVisibility
6:30 AM
Oct 25
55 °FMostly cloudy.2 mph82%30.07 "HgN/A
6:00 AM55 °FMostly cloudy.2 mph82%30.07 "HgN/A
5:30 AM55 °FOvercast.2 mph82%30.07 "HgN/A
5:00 AM55 °FOvercast.No wind82%30.07 "HgN/A
4:30 AM55 °FMostly cloudy.No wind82%30.07 "HgN/A
4:00 AM55 °FOvercast.No wind82%30.07 "HgN/A
3:30 AM55 °FOvercast.1 mph82%30.07 "HgN/A
3:00 AM55 °FOvercast.No wind82%30.07 "HgN/A
2:30 AM55 °FOvercast.No wind82%30.07 "HgN/A
2:00 AM55 °FOvercast.No wind82%30.07 "HgN/A
1:30 AM55 °FMostly cloudy.1 mph82%30.07 "HgN/A
1:00 AM55 °FOvercast.No wind82%30.07 "HgN/A
12:30 AM55 °FOvercast.2 mph77%30.07 "HgN/A
12:00 AM55 °FOvercast.2 mph82%30.07 "HgN/A
11:30 PM
Oct 24
55 °FOvercast.1 mph82%30.07 "HgN/A
11:00 PM55 °FOvercast.2 mph82%30.07 "HgN/A
10:30 PM55 °FOvercast.No wind82%30.07 "HgN/A
10:00 PM54 °FOvercast.1 mph88%30.07 "HgN/A
9:30 PM54 °FMostly cloudy.1 mph88%30.07 "HgN/A
9:00 PM54 °FClear.2 mph88%30.07 "HgN/A
8:30 PM54 °FClear.No wind88%30.07 "HgN/A
8:00 PM54 °FClear.1 mph82%30.07 "HgN/A
7:30 PM55 °FClear.2 mph82%30.07 "HgN/A
7:00 PM57 °FClear.2 mph77%30.07 "HgN/A
6:30 PM59 °FClear.2 mph72%30.07 "HgN/A
6:00 PM59 °FClear.2 mph68%30.07 "HgN/A
5:30 PM61 °FClear.3 mph63%30.07 "HgN/A
5:00 PM61 °FClear.6 mph63%30.07 "HgN/A
4:30 PM61 °FClear.6 mph63%30.07 "HgN/A
4:00 PM61 °FClear.3 mph68%30.07 "HgN/A
3:30 PM61 °FPartly sunny.5 mph63%30.07 "HgN/A
3:00 PM61 °FMostly cloudy.5 mph63%30.07 "HgN/A
2:30 PM59 °FOvercast.5 mph68%30.09 "HgN/A
2:00 PM59 °FOvercast.5 mph68%30.09 "HgN/A
1:30 PM59 °FOvercast.6 mph63%30.09 "HgN/A
1:00 PM59 °FOvercast.6 mph68%30.12 "HgN/A
12:30 PM57 °FOvercast.6 mph72%30.12 "HgN/A
12:00 PM55 °FOvercast.3 mph72%30.12 "HgN/A
11:30 AM54 °FMostly cloudy.3 mph77%30.12 "HgN/A
11:00 AM54 °FOvercast.3 mph77%30.12 "HgN/A
10:30 AM52 °FMostly cloudy.3 mph77%30.12 "HgN/A
10:00 AM52 °FMostly cloudy.5 mph82%30.15 "HgN/A
9:30 AM52 °FOvercast.5 mph77%30.15 "HgN/A
9:00 AM50 °FMostly cloudy.3 mph82%30.15 "HgN/A
8:30 AM50 °FOvercast.3 mph88%30.15 "HgN/A
8:00 AM50 °FOvercast.2 mph82%30.15 "HgN/A
7:30 AM50 °FPassing clouds.3 mph88%30.15 "HgN/A
7:00 AM50 °FClear.3 mph88%30.15 "HgN/A
Weather by CustomWeather, © 2014

See weather overviewHow to use our weather pages